Hourly Data Report for September 10, 2017

All times are specified in Local Standard Time (LST). Add 1 hour to adjust for Daylight Saving Time where and when it is observed.

NORTH CAPE
PRINCE EDWARD ISLAND

47°03'29.000" N
63°59'55.000" W
7.60 m
8300516
71987
WNE

Download Data

Hourly Data (September 2017)
Hourly Data Report for September 10, 2017
Temp Definition
°C
Dew Point Temp Definition
°C
Rel Hum Definition
%
Wind Dir Definition
10's deg

Wind Spd Definition
km/h
Visibility Definition
km
Stn Press Definition
kPa
Hmdx Definition


Wind Chill Definition


Weather Definition


TIME
00:00 13.5 11.1 85 5 25   102.26     LegendNANA
01:00 13.5 11.0 84 4 21   102.25     LegendNANA
02:00 13.5 10.4 82 3 23   102.26     LegendNANA
03:00 13.6 10.3 81 3 24   102.23     LegendNANA
04:00 13.6 10.2 80 3 24   102.20     LegendNANA
05:00 13.7 10.8 83 2 23   102.26     LegendNANA
06:00 13.5 10.4 81 1 25   102.30     LegendNANA
07:00 13.8 10.4 80 1 27   102.30     LegendNANA
08:00 14.2 11.0 81 1 25   102.31     LegendNANA
09:00 14.6 11.2 80 2 22   102.32     LegendNANA
10:00 15.0 11.5 80 1 17   102.30     LegendNANA
11:00 15.5 11.5 77 2 14   102.29     LegendNANA
12:00 15.8 11.2 74 1 10   102.24     LegendNANA
13:00 15.9 11.4 74 34 8   102.21     LegendNANA
14:00 16.4 10.9 70 35 7   102.13     LegendNANA
15:00 16.3 11.0 71 33 10   102.07     LegendNANA
16:00 16.0 10.8 71 34 9   102.02     LegendNANA
17:00 14.5 10.4 76 36 9   101.98     LegendNANA
18:00 14.4 10.2 76 32 7   101.94     LegendNANA
19:00 14.6 10.8 78 30 9   101.95     LegendNANA
20:00 15.3 10.9 75 30 16   101.94     LegendNANA
21:00 15.3 10.6 74 31 22   101.85     LegendNANA
22:00 15.1 10.1 72 31 27   101.82     LegendNANA
23:00 15.0 9.6 70 31 24   101.75     LegendNANA

Notes on Data Quality.

Legend

  • E = Estimated
  • M = Missing
  • NA = Not Available
  • ‡ = Partner data that is not subject to review by the National Climate Archives
Date modified: